User: anonymous   Login
Location: Unspecified
(0.0000°N, 0.0000°E)
Time: 22:30:49
(UTC+00:00)
Language:

AO-85 - Orbit

View from above orbital plane
View from above orbital plane
View from above satellite
View from above satellite

Ground track
Ground track

The orbit data is extracted from the following two-line orbital elements,

1 40967U 15058D   18172.33373748  .00000137  00000-0  32557-4 0 03645
2 40967 064.7762 178.6841 0207473 312.3881 045.9832 14.75726227054265
Epoch (UTC): 21 June 2018 08:00:34
Eccentricity: 0.0207473
inclination: 64.7762°
perigee height: 497 km
apogee height: 788 km
right ascension of ascending node: 178.6841°
argument of perigee: 312.3881°
revolutions per day: 14.75726227
mean anomaly at epoch: 45.9832°
orbit number at epoch: 5426

The dashed part of the orbit path shows where the satellite is in the earth's shadow,  

DLR